Flag for Taiwan Weather past 2 weeks in Kaohsiung, Taiwan

Now
86 °F

Broken clouds.


Feels Like: 97 °F
Forecast: 81 / 91 °F
Wind: 7 mph from West

Location: Kaohsiung International Airport

Current Time: Jul 31, 2015 at 5:45:12 PM

Latest Report: Jul 31, 2015 at 5:00 PM


Visibility: N/A

Pressure: 29.83 "Hg

Humidity: 75%

Dew point: 77 °F

Location of KaohsiungLocation

Historic Weather in Kaohsiung — Graph

°F

Kaohsiung temperature yesterday

Maximum temperature yesterday: 90 °F (at 2:30 PM)
Minimum temperature yesterday: 79 °F (at 4:00 AM)
Average temperature yesterday: 85 °F

Past Weeks' High & Low Weather Summary

 TemperatureHumidityPressure
High91 °F (Jul 17, 9:30 AM)100% (Jul 19, 6:30 AM)29.95 "Hg (Jul 19, 6:30 AM)
Low77 °F (Jul 22, 7:03 PM)52% (Jul 17, 9:30 AM)29.47 "Hg (Jul 16, 4:30 PM)
Average84 °F80%29.81 "Hg
* Reported Jul 16 4:00 PM — Jul 31 4:30 PM, Kaohsiung, Weather by CustomWeather, © 2015

Note: Actual official high and low records may vary slightly from our data, if they occured in-between our weather recording intervals... More about our weather records

Advertising

Kaohsiung weather history for previous 24 hours

 ConditionsComfort  
Time TempWeatherWind HumidityBarometerVisibility
4:30 PM
Fri, Jul 31
86 °FScattered clouds.10 mph70%29.83 "HgN/A
3:30 PM88 °FScattered clouds.10 mph70%29.83 "HgN/A
3:00 PM88 °FBroken clouds.10 mph70%29.86 "HgN/A
2:30 PM88 °FScattered clouds.10 mph70%29.86 "HgN/A
2:00 PM88 °FScattered clouds.9 mph70%29.86 "HgN/A
1:30 PM88 °FScattered clouds.10 mph70%29.86 "HgN/A
1:00 PM88 °FScattered clouds.9 mph75%29.86 "HgN/A
12:30 PM88 °FScattered clouds.9 mph75%29.89 "HgN/A
12:00 PM88 °FScattered clouds.10 mph75%29.89 "HgN/A
11:30 AM88 °FScattered clouds.9 mph75%29.89 "HgN/A
11:00 AM88 °FScattered clouds.10 mph75%29.89 "HgN/A
10:30 AM88 °FScattered clouds.10 mph70%29.89 "HgN/A
10:00 AM88 °FScattered clouds.6 mph66%29.89 "HgN/A
9:30 AM88 °FScattered clouds.7 mph66%29.89 "HgN/A
9:00 AM88 °FScattered clouds.6 mph66%29.92 "HgN/A
8:30 AM86 °FScattered clouds.7 mph70%29.92 "HgN/A
8:00 AM84 °FScattered clouds.7 mph79%29.92 "HgN/A
7:30 AM82 °FScattered clouds.7 mph84%29.92 "HgN/A
7:00 AM82 °FPassing clouds.7 mph84%29.89 "HgN/A
6:30 AM81 °FPassing clouds.7 mph84%29.89 "HgN/A
6:00 AM79 °FPassing clouds.5 mph89%29.89 "HgN/A
5:00 AM79 °FPassing clouds.7 mph89%29.86 "HgN/A
4:00 AM81 °FPassing clouds.8 mph89%29.86 "HgN/A
3:00 AM81 °FPassing clouds.7 mph84%29.86 "HgN/A
2:00 AM81 °FPartly cloudy.6 mph89%29.86 "HgN/A
1:00 AM84 °FPartly cloudy.9 mph74%29.86 "HgN/A
12:00 AM84 °FPartly cloudy.9 mph74%29.89 "HgN/A
11:30 PM
Thu, Jul 30
84 °FPartly cloudy.8 mph74%29.89 "HgN/A
11:00 PM84 °FPassing clouds.10 mph74%29.89 "HgN/A
10:30 PM84 °FPassing clouds.7 mph79%29.89 "HgN/A
10:00 PM84 °FPassing clouds.7 mph79%29.92 "HgN/A
9:30 PM84 °FPassing clouds.6 mph79%29.92 "HgN/A
9:00 PM84 °FPassing clouds.6 mph79%29.89 "HgN/A
8:30 PM84 °FPassing clouds.6 mph79%29.89 "HgN/A
8:00 PM84 °FPassing clouds.6 mph79%29.89 "HgN/A
7:30 PM84 °FPassing clouds.7 mph79%29.89 "HgN/A
7:00 PM84 °FPassing clouds.7 mph79%29.86 "HgN/A
6:30 PM84 °FBroken clouds.8 mph79%29.86 "HgN/A
6:00 PM86 °FScattered clouds.8 mph70%29.86 "HgN/A
5:30 PM86 °FScattered clouds.9 mph70%29.86 "HgN/A
5:00 PM86 °FScattered clouds.10 mph70%29.83 "HgN/A
Weather by CustomWeather, © 2015

See weather overviewHow to use our weather pages